sat.trackr.live / text

‹ back to catalog

ARSAT 2

NORAD 40941 · 2015-054B

PAYLOAD ACTIVE UNKNOWN

§ Identity

Operator
Country
ARGN
Launch date
2015-09-30
Launch site
FRGUI
Launch vehicle
Mass (kg)
RCS (m²)
81.41

Purposes: comms

External: N2YO · Heavens-Above · Gunter

§ Orbital elements

Epoch: 2026-09-20T04:35:38.726016Z

Period
1,436.13 min
Inclination
0.0130°
Eccentricity
0.0001876
Mean motion
1.00269783 rev/d
Perigee alt
35,779.2 km
Apogee alt
35,795.1 km
Semi-major
42,165.3 km
B*
0.0000e+0
RAAN
158.0284°
Arg perigee
13.1672°
Mean anomaly
175.8069°
Rev number
4,025

§ Raw data

ARSAT 21 40941U 15054B   26263.19142044  .00000000  00000+0  00000+0 0  99952 40941   0.0130 158.0284 0001876  13.1672 175.8069  1.00269783 40257

JSON: /api/v1/satellites/40941 · /tle

For live sub-satellite position, see the globe view (requires WebGL).

§ Visibility from observer

Set your observer location to see the next 7 days of passes ≥ 10°. The values pass through the URL so the page stays shareable.

No JS? Fill the form by hand. The geolocation button needs JavaScript.